RH
20 19 18 18 17 18 18 17 18 18 17 21 21 20 18 14 14 13 14 15 16 15 17 17 16 18 19 28 34 33 33 35 36 39 44 45 43 43 44 46 45 44 43 39 34 31 27 21 18 16 16 16 16 16 16 16 16 16 16 18 18 16 16 20 24 27 29 29 30 32 33 35 37 37 37 36 36 37 36 36 36 35 33 34 33 34 39 41 39 37 36 36 35 33 31 29 27
22 21 19 18 19 19 18 18 21 20 19 20 18 18 17 14 14 13 12 13 14 14 18 18 17 18 20 28 30 31 37 36 34 37 39 40 39 37 37 40 43 44 42 39 34 32 27 21 18 15 15 15 15 15 16 16 16 17 17 18 18 16 19 25 27 27 28 28 29 31 33 35 37 37 37 36 37 37 37 35 35 33 29 28 30 34 38 39 40 39 37 36 35 35 33 29 28
21 22 21 21 21 20 19 18 21 22 22 21 18 16 15 14 12 11 12 13 13 14 18 18 17 18 20 28 29 30 39 38 38 38 40 41 38 39 39 40 43 45 43 39 34 31 27 22 18 14 14 14 14 15 16 16 16 17 17 19 18 19 23 27 28 27 27 28 30 31 33 36 37 37 37 36 37 37 36 34 33 32 28 24 28 33 36 38 39 39 38 36 35 35 32 28 26
13 17 21 24 23 22 21 20 21 21 22 21 20 17 15 13 11 12 14 15 15 16 18 17 17 19 22 30 31 31 37 39 40 38 41 41 38 41 42 41 43 45 43 37 31 29 27 22 18 14 14 14 14 16 16 17 17 17 17 20 21 23 25 27 27 26 27 29 31 31 33 35 36 36 36 35 36 35 33 31 29 31 31 26 29 34 35 37 38 39 38 35 34 31 27 26 25
8 10 15 21 21 21 22 22 21 20 19 19 19 18 17 14 12 14 16 17 17 17 18 16 17 22 25 28 30 33 35 37 38 37 39 39 37 39 41 42 43 43 40 35 30 30 28 23 18 15 14 13 14 15 16 17 17 17 18 21 24 25 26 28 28 27 28 30 31 31 33 34 35 35 34 33 33 32 30 28 26 26 29 28 30 35 35 37 38 38 38 35 32 26 25 27 27
7 7 8 12 15 18 21 23 22 21 18 17 18 17 16 15 13 15 17 17 17 18 18 17 19 25 30 30 30 33 34 35 37 38 37 37 38 39 41 42 42 41 38 33 31 31 28 24 19 15 13 13 14 15 16 17 18 18 20 24 26 26 26 28 29 28 28 29 30 31 32 33 33 33 32 31 30 29 27 24 22 21 24 26 31 35 34 36 37 38 37 34 29 25 27 30 34
8 8 7 8 10 12 16 19 20 21 19 18 18 17 16 14 13 14 16 17 16 17 18 19 21 27 31 32 33 32 32 32 35 39 37 37 40 40 41 41 42 40 36 33 32 31 28 24 20 16 13 13 14 14 15 17 18 18 22 27 27 26 27 29 29 28 28 29 30 30 31 31 31 29 27 26 24 23 22 21 20 20 20 24 31 33 33 34 34 35 34 31 28 27 30 34 40
11 12 9 9 10 8 10 11 13 16 18 20 20 19 18 15 12 14 16 16 16 17 18 22 25 31 32 34 40 36 33 33 34 39 38 40 41 39 39 41 43 39 34 33 32 31 28 25 21 16 13 13 13 14 15 17 18 19 24 28 28 28 28 29 29 27 27 29 30 30 29 28 26 24 21 20 20 20 21 21 20 20 19 23 30 31 30 30 30 30 28 27 27 28 32 37 41
14 14 12 12 12 10 8 8 8 9 11 15 18 20 20 17 12 12 16 16 16 16 18 23 27 32 35 37 43 39 36 36 36 40 39 41 40 38 39 41 43 39 33 32 33 31 28 26 22 17 13 12 14 14 15 17 18 20 25 29 29 29 29 29 29 27 27 29 29 28 25 23 21 20 18 18 19 20 21 21 21 20 19 21 26 27 27 27 26 25 24 24 25 27 31 36 40
14 15 15 14 14 13 11 9 7 6 6 8 11 14 18 19 14 12 15 16 15 16 17 22 27 31 34 37 41 41 39 38 38 42 42 42 40 38 39 41 43 39 32 31 33 31 29 27 22 17 14 13 14 14 15 17 19 21 26 30 30 29 29 30 30 28 28 29 29 26 22 19 19 19 18 18 19 19 20 22 21 20 19 20 22 23 24 24 23 23 24 25 26 26 29 34 38
12 13 15 16 16 15 12 10 9 7 5 5 6 7 11 16 17 13 13 15 15 16 15 19 30 32 32 34 39 41 41 40 41 43 43 41 40 38 39 42 43 39 32 31 32 31 29 26 22 18 14 14 14 14 16 17 19 22 27 30 30 29 29 31 31 29 28 29 28 24 19 18 19 19 18 18 19 19 20 22 21 20 19 20 20 20 21 21 22 24 26 27 27 27 28 31 35
11 11 13 16 16 15 13 11 10 8 7 6 5 5 7 10 16 16 13 15 15 17 15 16 27 30 31 34 36 38 39 40 39 40 40 39 40 39 41 43 42 39 32 31 33 31 29 26 22 19 15 14 14 15 16 17 20 23 28 30 29 29 30 31 31 30 29 30 28 24 19 18 19 19 19 18 19 19 20 20 20 19 18 19 19 18 18 20 22 24 25 27 28 29 29 30 32
10 10 12 14 13 14 14 12 11 10 9 7 6 6 6 6 11 15 15 15 16 17 15 17 22 25 30 34 34 35 36 38 37 39 39 39 39 41 43 43 42 40 34 32 33 32 29 25 22 19 16 15 14 15 16 18 21 25 29 29 29 30 31 32 32 30 30 30 29 25 20 18 19 19 19 18 18 19 19 19 18 17 17 17 18 17 17 19 21 22 23 26 28 30 30 30 31
10 10 12 13 12 13 13 13 11 11 9 7 6 6 7 6 7 11 15 15 16 16 14 17 20 24 31 34 36 35 34 36 36 38 39 39 40 41 44 43 41 40 36 32 32 31 27 24 22 19 16 15 15 16 17 19 23 27 29 29 29 30 32 33 33 31 30 31 30 28 22 19 19 19 19 18 18 18 19 18 17 16 16 16 16 16 17 18 19 21 22 25 28 30 31 31 32
11 11 13 13 13 12 11 12 12 11 9 7 7 7 8 10 8 8 12 14 15 15 15 17 17 24 32 33 34 34 34 37 36 38 39 39 40 42 44 42 40 39 36 32 30 29 25 23 22 19 16 15 15 16 19 22 25 28 29 30 30 31 33 34 33 31 31 31 30 29 23 19 19 19 19 19 18 18 19 18 17 15 15 16 16 16 16 17 18 20 21 24 28 29 30 30 32
13 13 13 14 13 12 10 11 11 11 10 8 8 9 10 12 11 10 11 12 15 15 15 17 16 19 29 30 30 32 35 38 37 38 40 40 41 43 44 42 40 38 34 30 29 27 25 24 22 18 16 15 16 18 20 23 27 29 30 32 32 33 34 34 33 31 31 31 31 29 23 19 18 18 19 18 18 18 19 19 18 17 17 17 16 16 15 16 16 18 19 22 27 29 29 29 30
16 14 13 13 12 11 10 9 10 11 11 10 9 9 10 11 11 12 12 13 14 14 15 18 16 16 24 26 26 33 37 37 39 40 42 42 43 44 44 41 39 36 32 29 28 27 26 25 23 19 16 16 17 20 21 23 27 29 31 33 34 35 35 34 32 31 31 31 29 26 23 21 19 18 19 19 18 17 18 19 19 18 18 18 18 18 17 16 16 17 17 20 25 29 30 29 28
18 16 14 13 12 10 9 9 9 10 11 12 14 13 11 10 10 12 12 14 14 14 18 20 18 18 25 31 31 36 40 39 42 43 44 44 44 45 43 40 38 34 31 29 28 27 27 27 25 21 18 18 19 21 22 23 25 29 31 33 36 37 36 34 32 31 32 32 29 26 23 22 22 20 19 19 18 18 17 18 19 19 19 20 20 20 19 18 17 17 18 19 23 29 31 30 28
17 17 16 12 10 9 8 8 8 9 11 15 19 17 14 11 11 12 13 15 13 14 21 22 24 26 31 41 41 38 40 42 43 43 44 46 45 44 42 40 37 34 31 29 29 27 28 28 27 25 22 20 20 21 22 23 24 26 30 34 37 38 36 34 32 32 34 36 36 34 30 28 29 25 21 21 20 20 19 18 18 18 19 20 20 20 19 19 18 18 18 18 21 25 29 30 30
16 16 16 12 9 9 9 8 8 8 11 17 19 17 15 14 12 14 15 17 14 13 23 28 32 33 33 44 46 40 40 41 43 43 44 45 44 42 41 40 38 34 31 30 30 28 28 29 29 28 27 24 22 22 23 23 22 25 31 35 38 38 36 34 32 33 36 39 40 41 40 38 35 30 26 25 24 24 22 20 19 19 19 18 19 19 18 19 18 18 17 17 18 22 26 29 30
15 15 14 13 12 11 9 8 8 8 12 19 19 15 16 16 14 15 15 18 16 13 22 28 31 37 37 41 43 42 41 40 43 44 44 44 43 42 40 41 39 36 34 31 30 30 29 29 30 31 31 28 25 24 23 22 22 25 31 36 39 38 36 34 33 35 38 41 41 43 46 43 37 33 31 30 31 32 28 26 25 24 23 21 20 19 18 18 17 17 17 18 18 20 23 29 30
14 14 12 12 13 12 10 9 8 8 12 17 17 14 15 16 15 15 14 15 15 13 19 26 31 38 40 40 41 43 43 42 43 43 44 44 43 42 41 41 39 38 37 32 30 32 30 30 32 33 33 32 29 25 23 22 23 26 32 37 39 39 37 36 36 38 40 42 43 45 48 45 41 38 36 34 37 38 37 35 33 33 33 31 28 26 24 22 21 21 22 23 24 23 23 30 34
14 13 12 12 12 12 11 10 9 9 12 15 16 13 13 14 13 13 13 13 12 11 17 27 32 36 39 41 43 43 42 42 42 42 43 44 44 42 41 42 39 39 38 34 34 34 31 32 33 34 35 35 32 25 22 23 24 28 34 38 39 39 39 39 40 41 41 44 46 47 48 46 44 43 40 37 38 38 38 37 37 38 39 38 36 35 34 31 30 31 32 33 34 34 32 36 41
14 13 13 12 12 11 11 10 10 11 12 13 14 13 12 12 11 11 12 12 12 13 20 29 34 39 44 46 44 42 40 40 41 42 41 42 44 44 45 45 41 40 40 37 37 34 32 35 35 36 37 35 34 27 23 23 25 31 35 38 39 40 42 42 43 42 42 46 48 49 49 47 44 43 39 37 37 35 34 35 36 37 37 37 38 38 38 37 38 39 39 39 42 44 44 44 46
14 14 13 13 12 11 10 10 11 12 12 12 12 12 12 12 12 11 10 11 11 15 24 31 34 38 41 47 52 49 44 43 42 40 42 46 53 55 55 53 46 42 41 39 37 34 36 39 38 39 39 38 37 33 26 24 27 33 37 38 40 42 45 45 45 45 46 48 50 51 51 47 44 42 37 35 34 31 31 34 35 35 35 37 40 41 41 41 42 42 40 40 43 46 46 46 44
14 13 14 14 12 12 11 10 11 13 12 12 12 13 13 13 13 11 10 10 12 17 25 30 33 34 34 43 55 58 51 48 45 41 43 50 55 57 57 57 52 44 41 40 38 38 40 42 42 42 43 41 38 35 28 26 31 36 38 40 42 44 46 47 46 48 51 52 51 52 52 47 45 42 36 35 33 29 32 35 35 36 37 40 43 43 41 41 44 44 39 38 40 43 43 44 44
14 13 14 14 13 13 12 11 11 13 13 12 12 12 12 13 13 12 10 9 13 20 26 29 29 31 36 39 46 54 54 52 50 46 45 46 47 49 52 55 56 50 43 41 40 40 43 44 44 45 44 44 39 33 28 28 33 37 41 44 45 45 48 50 50 51 53 53 52 53 52 48 45 42 37 35 31 27 32 37 38 38 38 41 42 40 38 38 40 39 35 34 37 40 41 43 43
14 14 14 14 14 13 13 12 11 12 13 12 12 12 12 12 12 10 9 9 12 20 27 29 28 31 39 39 42 50 53 53 52 47 45 46 45 46 49 52 57 58 47 41 41 42 45 46 46 45 44 45 43 35 33 35 37 40 43 45 47 48 50 53 55 55 54 53 52 51 51 48 45 39 34 33 32 32 35 37 37 36 35 37 37 35 34 34 34 35 34 35 37 40 41 42 42
14 14 14 14 13 13 13 12 12 13 13 13 13 13 11 10 10 9 8 8 10 19 25 28 30 33 36 37 41 49 52 52 51 48 46 47 48 47 49 48 56 64 53 43 43 44 48 48 46 45 44 46 45 41 41 42 43 45 45 46 48 51 52 54 55 55 54 52 50 50 50 48 43 36 33 33 35 38 40 38 35 33 34 35 34 32 32 32 33 34 35 36 38 40 41 42 41
14 14 15 15 14 13 13 13 13 13 13 14 16 16 12 10 10 9 9 8 9 17 25 27 28 31 32 33 36 42 48 50 50 50 46 46 51 51 50 46 51 64 58 47 47 48 50 48 45 44 44 45 43 43 45 45 46 47 47 48 50 52 53 54 54 53 53 51 49 49 47 43 39 35 34 35 34 36 39 37 32 32 34 33 32 32 32 33 33 35 37 39 39 40 40 40 40
14 14 15 15 15 14 13 14 14 13 14 15 16 16 13 10 10 9 9 9 8 14 24 26 26 28 30 32 33 35 42 47 51 53 47 44 50 52 52 48 50 64 64 54 51 53 52 49 45 43 44 44 43 45 46 46 48 47 49 51 52 54 55 54 54 53 52 50 50 49 46 43 40 37 35 34 32 32 33 32 30 32 32 31 32 33 33 34 34 36 37 38 38 37 37 37 36
15 15 16 15 15 15 13 14 14 13 14 15 17 15 12 10 10 9 8 9 8 11 20 25 25 28 29 32 34 34 37 44 51 52 47 44 49 54 54 51 52 64 70 64 59 58 56 50 45 44 45 44 45 48 48 47 48 47 50 52 52 55 56 55 55 53 50 50 53 51 48 46 42 38 34 32 31 29 30 30 30 31 30 31 31 31 31 32 31 31 31 32 32 32 32 31 31
16 15 17 16 15 15 14 14 13 13 14 15 16 13 12 11 9 9 9 9 8 9 18 24 24 28 31 33 35 37 38 42 46 47 45 46 53 57 57 55 54 60 69 70 66 61 57 51 47 46 46 46 47 49 49 47 45 45 48 50 51 54 56 55 54 53 53 56 56 52 49 46 41 37 33 30 29 29 30 30 30 31 30 31 31 30 30 30 29 29 29 29 30 30 29 28 29
18 17 17 17 16 15 14 13 13 13 14 14 14 12 12 12 10 10 9 10 9 10 19 25 27 32 36 34 34 38 44 44 42 44 47 53 60 64 65 63 60 61 62 68 71 66 59 52 49 49 48 50 50 48 46 44 41 41 45 47 49 51 54 53 53 55 60 64 60 53 49 44 39 35 31 29 29 30 29 29 32 32 30 30 30 29 29 29 29 29 31 31 33 34 32 32 32
19 19 18 17 15 16 15 13 13 12 13 14 13 12 11 11 12 10 9 11 10 12 20 24 27 34 35 34 34 39 47 51 51 53 58 64 68 71 75 74 72 71 66 70 78 71 61 55 53 52 50 52 52 48 45 42 41 44 46 49 50 52 53 55 58 58 62 66 64 58 50 43 38 34 31 29 29 30 29 29 32 32 30 30 30 30 30 30 30 31 33 35 35 36 36 36 36
17 17 17 16 15 15 14 13 12 11 12 13 12 12 11 11 11 10 10 10 11 15 23 24 25 31 32 32 35 40 50 61 65 68 69 68 67 71 77 78 78 76 68 72 81 74 64 60 57 54 52 53 52 47 42 40 45 48 49 53 54 55 56 60 64 64 63 63 64 64 53 41 37 33 31 30 28 27 27 28 31 32 32 33 33 34 34 34 34 37 38 37 36 37 38 38 37
16 17 17 16 14 14 13 12 12 11 11 12 11 11 11 11 11 11 11 10 15 22 25 24 23 28 31 30 37 46 52 58 64 70 72 71 72 76 81 81 81 76 69 72 78 74 65 59 59 56 54 52 47 43 38 38 45 49 50 55 56 58 61 65 65 63 64 61 60 67 56 39 35 33 30 28 26 25 27 29 32 34 36 36 34 37 41 41 41 42 41 37 37 39 41 40 38
16 17 18 16 15 14 12 11 11 10 12 12 11 11 10 11 11 12 11 10 19 27 27 26 24 27 28 31 43 50 49 52 58 64 70 74 80 84 86 86 84 80 76 74 72 67 62 60 60 58 55 50 43 40 38 37 45 50 52 55 56 58 62 66 64 60 64 61 57 63 54 36 33 31 27 27 27 27 28 31 34 35 37 36 35 37 42 44 40 38 37 35 37 38 39 40 40
16 18 19 18 16 15 14 13 11 10 13 13 11 10 10 11 11 12 11 12 21 27 28 27 25 26 28 36 49 49 46 51 57 63 70 75 80 83 86 88 85 81 78 74 70 67 67 66 64 60 55 47 41 42 41 40 45 53 56 56 56 59 60 62 62 60 61 60 58 58 49 35 31 31 31 31 31 29 30 31 34 35 35 34 33 34 37 37 35 34 34 35 35 36 36 37 38
18 19 19 18 17 16 16 15 12 11 14 14 12 12 12 12 12 12 12 17 23 27 32 33 30 32 34 42 53 52 51 53 54 63 70 71 76 80 83 85 83 81 76 72 70 71 73 72 68 64 58 47 41 43 45 44 47 54 59 60 61 61 61 59 60 61 59 60 62 56 43 34 32 34 37 36 34 32 31 32 34 34 34 33 33 33 33 33 33 34 35 36 35 35 36 36 36
19 18 18 18 17 16 15 15 13 12 14 15 16 17 16 14 13 12 13 20 25 26 36 43 38 37 39 46 53 54 55 55 55 60 60 61 70 77 80 81 81 80 77 73 71 72 74 73 69 65 58 48 43 46 50 50 51 55 57 60 61 59 61 61 60 61 58 60 61 49 39 35 33 35 37 36 36 34 33 32 33 34 35 35 33 33 34 34 35 35 35 34 34 34 35 35 34
20 18 17 16 16 16 16 16 15 15 17 17 17 20 21 18 13 12 14 22 28 27 37 47 44 41 43 48 53 53 54 55 55 54 53 57 65 70 74 79 81 81 79 74 71 73 73 69 64 62 59 51 48 51 54 53 53 54 56 58 60 59 60 61 59 59 59 60 57 47 40 36 33 35 36 35 36 34 32 32 33 34 34 35 35 35 36 35 35 34 32 31 31 32 32 33 33
21 18 16 16 17 17 17 18 19 19 20 20 19 21 24 21 14 12 13 23 33 33 38 48 46 44 45 46 49 51 52 54 53 50 50 56 62 65 68 73 76 80 83 79 75 76 72 66 63 62 61 57 54 56 56 55 54 54 56 57 58 58 57 57 58 60 63 63 57 48 41 37 36 38 36 35 35 33 34 34 34 34 35 36 36 36 36 35 33 31 29 29 30 30 31 32 33
21 18 17 17 18 17 17 20 22 20 19 20 21 20 22 19 15 14 13 21 37 40 40 44 44 42 42 40 42 46 48 52 56 56 56 58 64 68 67 67 70 72 79 82 80 78 72 68 67 63 61 59 57 59 58 56 55 54 54 53 53 57 58 58 59 63 68 66 60 50 42 39 39 38 35 35 36 35 34 35 35 36 37 37 37 36 34 34 33 32 31 31 31 31 31 32 33
19 18 18 18 18 17 17 19 21 21 20 21 21 20 21 18 13 15 13 17 36 45 42 43 43 41 41 38 38 40 42 47 57 63 63 63 68 68 62 61 62 63 72 82 82 79 74 70 69 65 62 60 59 61 61 57 55 53 54 52 52 56 60 62 62 67 68 63 62 58 45 41 41 37 37 37 36 35 33 34 35 36 36 35 35 34 34 35 35 35 34 33 33 33 33 33 33
18 19 20 19 18 17 19 20 20 22 24 25 23 21 22 20 15 15 15 14 27 41 43 43 43 43 44 41 36 36 39 46 55 62 64 64 62 58 56 57 55 57 70 83 82 78 75 71 70 67 64 62 62 63 61 57 55 54 55 55 56 59 63 67 65 67 65 57 64 65 48 41 42 39 39 39 36 35 34 34 34 34 35 34 34 34 34 35 35 35 35 35 35 35 34 33 33
20 20 21 22 20 17 21 23 20 24 31 29 24 20 21 23 18 15 16 13 21 36 43 45 44 44 47 45 38 36 42 48 55 61 64 63 57 53 56 55 51 54 66 78 79 76 74 72 70 68 66 65 65 64 61 59 57 56 58 59 61 63 66 68 63 63 62 56 62 66 49 42 44 41 40 39 36 35 35 34 34 34 35 35 35 34 33 33 34 34 35 35 35 34 34 33 33
21 22 23 25 23 19 22 25 22 27 34 28 22 21 21 25 22 16 16 16 23 37 42 44 44 44 46 45 41 42 46 52 57 62 62 58 56 58 58 51 46 50 58 66 71 71 69 70 70 69 67 66 67 65 63 62 59 57 60 63 64 65 65 63 60 60 64 57 55 59 52 46 45 42 40 37 35 35 34 33 33 34 35 34 35 34 34 35 34 34 34 33 34 34 34 35 35
23 24 25 29 29 24 25 29 27 27 28 23 20 21 20 23 22 18 18 19 25 35 38 40 42 43 44 45 46 49 51 53 56 60 58 53 53 58 56 49 46 47 50 57 64 66 65 68 70 68 65 65 66 67 65 62 58 58 62 64 65 64 62 61 59 60 64 58 51 53 52 48 45 42 39 37 36 35 33 32 32 32 31 30 32 33 35 35 34 32 32 33 35 36 36 36 36
25 24 26 33 34 30 29 31 30 27 24 20 20 22 21 22 20 17 17 19 25 32 35 38 39 40 44 46 49 52 53 53 54 55 55 54 56 56 52 51 53 51 50 56 62 63 63 65 66 64 63 63 65 66 65 61 58 58 61 62 61 61 62 62 61 60 62 58 51 51 51 47 44 42 39 38 36 34 32 31 31 30 29 28 30 31 33 33 32 32 32 34 36 36 37 38 38
24 22 25 32 32 30 30 29 29 28 24 20 21 22 20 21 21 18 16 17 22 27 30 35 38 41 45 48 51 54 55 55 55 53 53 54 55 54 52 53 55 54 53 57 61 61 60 60 60 61 62 62 63 65 66 64 60 59 60 59 58 59 62 64 63 62 63 60 53 49 48 46 44 41 41 40 37 34 32 30 30 30 31 30 30 31 32 32 32 32 33 35 36 37 38 39 39
25 24 26 28 28 32 31 26 25 26 25 23 23 22 18 19 19 18 19 22 25 27 30 35 42 46 48 50 53 56 55 56 57 54 52 53 53 52 53 52 51 51 54 58 60 58 58 57 58 60 60 61 63 65 66 65 61 58 58 59 59 60 61 63 65 64 63 58 50 45 45 44 43 43 44 41 37 34 31 29 30 32 34 32 30 31 32 32 31 31 32 34 36 38 39 40 40
28 28 25 24 26 31 33 28 23 25 30 28 22 19 18 17 18 17 20 28 32 33 34 38 43 47 48 50 54 55 54 55 57 54 51 51 51 53 55 53 49 50 54 57 57 56 56 58 59 59 60 62 64 64 65 64 60 57 57 59 61 63 63 64 64 61 59 55 46 42 42 42 42 44 45 41 37 35 31 29 30 31 32 30 31 32 33 32 31 31 33 34 36 39 40 40 40
30 27 22 24 27 28 32 33 27 27 34 33 22 18 19 18 20 20 20 32 40 39 39 42 44 46 48 51 54 52 51 53 54 54 52 51 53 56 58 56 53 53 52 52 53 55 56 58 59 58 59 63 64 63 64 63 60 58 58 59 62 66 68 66 62 58 57 52 44 41 40 40 41 43 43 40 38 36 32 31 31 31 31 32 33 33 32 32 32 32 33 34 36 39 40 40 40
30 27 22 25 30 27 28 34 34 30 32 33 27 22 21 18 19 18 18 33 45 44 42 44 46 47 48 51 53 51 51 53 55 57 56 57 58 59 60 58 55 55 52 50 53 56 58 59 57 54 60 66 65 62 61 62 61 60 59 60 63 68 70 66 61 58 54 48 43 40 38 38 39 40 40 38 37 35 32 32 32 32 34 35 34 32 32 33 35 34 34 36 37 38 38 38 37
31 31 25 24 27 26 25 30 34 34 34 33 29 27 24 20 19 16 17 32 43 42 43 45 46 47 46 49 51 50 50 51 53 56 57 58 59 58 58 56 55 55 53 51 54 57 58 59 56 54 58 62 61 59 59 60 62 62 62 62 64 68 68 65 63 58 51 45 43 41 39 39 38 38 38 36 36 35 32 32 34 35 37 36 33 32 33 35 36 34 34 35 36 36 36 35 34
32 32 28 23 23 24 25 27 28 32 39 36 30 31 28 22 21 16 16 32 39 38 42 46 48 48 46 47 49 48 47 48 51 53 54 55 56 57 56 54 55 56 54 52 55 57 57 57 55 54 54 54 55 58 59 59 62 63 64 64 64 66 66 66 63 56 49 46 45 42 40 40 39 39 38 36 36 35 35 39 40 37 35 34 34 34 35 36 35 34 35 35 35 35 34 34 35
30 30 27 24 24 23 26 29 26 26 35 36 33 34 29 24 30 26 23 35 40 37 40 46 49 50 47 45 45 44 44 46 49 49 48 48 50 52 54 54 56 56 54 53 57 58 57 56 54 52 50 51 53 56 58 61 63 64 64 62 62 63 64 62 58 52 50 50 47 43 40 39 40 40 39 38 37 38 41 43 40 35 34 34 35 34 34 35 35 34 34 35 35 34 34 36 38